[[{"header":{"parameterUnit":"m.s-1","parameterCategory":1,"la1":30.2991,"la2":30.254,"lo1":-89.0895,"lo2":-89.0444,"dy":0.0017,"dx":0.0017,"nx":28,"ny":28,"refTime":"2025-07-19T03:00:00:Z","depth":0,"parameterNumber":2,"parameterNumberName":"U-component_of_WINDS"},"data":[0,0,0,0,0,0,0,0,0,0,0,0,0,0,0,0,0,0,0,0,0,0,0,0,0,0,0,0,0,0,0,0,0,0,0,0,0,0,0,0,0,0,0,0,0,0,0,0,0,0,0,0,0,0,0,0,0,0,0.517,0.5171,0,0.5255,0.5256,0.5257,0.5299,0.5299,0.5299,0.5299,0.5388,0.5391,0.5393,0,0,0,0,0,0,0,0,0,0,0,0,0,0.5045,0.5047,0.517,0.5171,0.5172,0.5255,0.5256,0.5257,0.5299,0.5299,0.5299,0.5299,0.5388,0.539,0.5393,0,0,0,0,0,0,0,0,0,0,0,0,0,0.5111,0.5048,0.517,0.5203,0.5206,0.5255,0.5256,0.5258,0.5299,0.5299,0.5299,0.5299,0.5387,0.539,0.5394,0.5416,0,0,0.5405,0.5406,0,0,0,0,0,0,0,0,0.5108,0.5116,0.5197,0.52,0.5205,0.5266,0.5245,0.5311,0.5299,0.5264,0.5299,0.5299,0.5348,0.5355,0.5371,0.5421,0.5424,0.5405,0.5407,0.5409,0.541,0,0,0,0,0,0,0,0.5103,0.5113,0.5204,0.5198,0.5203,0.5214,0.5223,0.5258,0.5305,0.5267,0.527,0.5279,0.535,0.5367,0.5373,0.5426,0.5405,0.5408,0.541,0.5412,0.5498,0.5498,0,0,0,0,0,0,0.5093,0.5108,0.5201,0.5206,0.5155,0.5216,0.5227,0.5247,0.5305,0.5314,0.5279,0.5281,0.5361,0.5369,0.5377,0.5407,0.5409,0.5412,0.5414,0.5498,0.5498,0.5498,0,0,0,0,0,0,0.509,0.5101,0.5198,0.5158,0.5171,0.5218,0.524,0.5248,0.5265,0.5314,0.5323,0.5288,0.5361,0.5372,0.5406,0.541,0.5414,0.5417,0.5497,0.5498,0.5498,0.5467,0,0,0,0,0,0,0.5086,0.5099,0.5108,0.5158,0.5173,0.5225,0.5241,0.525,0.5271,0.5274,0.5325,0.5333,0.5362,0.54,0.5409,0.5415,0.542,0.5497,0.5497,0.5498,0.5468,0.5466,0.5464,0,0,0,0,0,0.5081,0.5097,0.5108,0.5119,0.5185,0.5225,0.5234,0.5266,0.5271,0.5281,0.5312,0.5331,0.5408,0.5403,0.5414,0.5421,0.5497,0.5497,0.5498,0.5468,0.5466,0.5464,0,0,0,0,0,0,0.5047,0.5104,0.5117,0.5149,0.5182,0.5232,0.5245,0.5263,0.5296,0.5297,0.5337,0.5348,0.5379,0.5403,0.5397,0.5446,0.5455,0.5457,0.5428,0.5427,0.5425,0.5419,0.5423,0,0,0,0,0,0.5043,0.507,0.5118,0.5142,0.5157,0.5198,0.5217,0.5239,0.5274,0.5289,0.5323,0.5357,0.5389,0.5409,0.5441,0.5471,0.5483,0.5481,0.5479,0.5478,0.548,0.5497,0.5496,0.5499,0.5499,0.5499,0,0,0.5035,0.5069,0.5084,0.5135,0.5163,0.5191,0.5209,0.5238,0.5259,0.5293,0.5328,0.5353,0.5395,0.5426,0.5442,0.5448,0.5481,0.5478,0.5477,0.5479,0.5497,0.5497,0.5496,0.5499,0.5499,0.5499,0,0,0.5035,0.5063,0.5086,0.5113,0.5154,0.5181,0.5186,0.5234,0.5252,0.5287,0.5313,0.5338,0.5393,0.5421,0.5442,0.5451,0.547,0.546,0.5452,0.5468,0.5468,0.5468,0.5471,0.5471,0.5462,0.5462,0.5462,0,0.502,0.5062,0.5095,0.5122,0.5143,0.5175,0.5197,0.5223,0.5273,0.5287,0.5293,0.536,0.5391,0.5429,0.5431,0.5447,0.5455,0.5455,0.5465,0.5465,0.5466,0.5469,0.547,0.546,0.546,0.5461,0.5461,0,0.5042,0.507,0.5083,0.5129,0.5153,0.5177,0.5214,0.5234,0.5254,0.528,0.5314,0.5351,0.5391,0.5402,0.5422,0.5443,0.5445,0.5457,0.5467,0.5464,0.5467,0.5469,0.5458,0.5459,0.5459,0.5459,0,0,0.5023,0.5086,0.5091,0.5112,0.5159,0.5182,0.5208,0.5246,0.5262,0.5295,0.5318,0.5362,0.5373,0.5397,0.5421,0.5435,0.5439,0.5445,0.5447,0.5443,0.5464,0.5455,0.5456,0.5452,0.5452,0.5452,0.5461,0,0.5029,0.5076,0.5106,0.5142,0.5169,0.5198,0.5221,0.5252,0.5277,0.5304,0.5332,0.5362,0.5375,0.5389,0.5405,0.5435,0.5444,0.5435,0.5474,0.5474,0.5462,0.5458,0.5448,0.5454,0.5462,0.5463,0.5463,0,0.5043,0.5075,0.5112,0.5156,0.5168,0.5188,0.5225,0.5249,0.5286,0.5303,0.5329,0.5352,0.5381,0.5388,0.5428,0.5421,0.5439,0.5456,0.5457,0.5462,0.5469,0.5463,0.5457,0.5458,0.5465,0.5465,0.5465,0,0.5026,0.5077,0.5106,0.5124,0.5175,0.5188,0.5211,0.5247,0.5268,0.53,0.5313,0.5349,0.5368,0.5395,0.5427,0.5429,0.5464,0.5473,0.5479,0.5478,0.5486,0.5485,0.5483,0.5496,0.5496,0.5496,0.5496,0,0.503,0.5052,0.5099,0.5117,0.5142,0.5176,0.5201,0.5225,0.5257,0.5281,0.5308,0.533,0.5371,0.5398,0.5423,0.5452,0.5461,0.5476,0.5482,0.5473,0.5471,0.5485,0.5486,0.5497,0.5497,0.5497,0.5496,0,0.5015,0.5047,0.5081,0.5127,0.5139,0.5155,0.5195,0.5213,0.5239,0.5268,0.5277,0.5318,0.535,0.5385,0.543,0.5447,0.5474,0.5484,0.5462,0.5465,0.5469,0.5468,0.5477,0.5479,0.549,0.549,0.549,0,0.5015,0.5033,0.508,0.5097,0.5118,0.5146,0.5167,0.5201,0.5221,0.5263,0.5277,0.5311,0.534,0.5391,0.5425,0.5459,0.5469,0.547,0.5475,0.5465,0.5469,0.5468,0.5469,0.5468,0.5468,0.5468,0.5467,0,0.5013,0.5028,0.5056,0.509,0.5113,0.5142,0.5171,0.5184,0.5224,0.5246,0.5279,0.5301,0.5346,0.5379,0.5417,0.5441,0.5461,0.5465,0.5468,0.546,0.5446,0.5453,0.5457,0.5465,0.5465,0.5466,0.5466,0.5466,0.5006,0.5023,0.5058,0.5088,0.5114,0.514,0.516,0.5187,0.5215,0.5254,0.5272,0.5305,0.534,0.5393,0.5416,0.5442,0.5448,0.5453,0.5454,0.5455,0.5452,0.5441,0.5449,0.5449,0.5449,0.545,0.545,0,0.5005,0.5029,0.5056,0.5096,0.512,0.5135,0.5169,0.5188,0.5216,0.5247,0.5275,0.5312,0.5344,0.538,0.5415,0.5429,0.5439,0.5437,0.5437,0.5442,0.5445,0.5439,0.5428,0.5428,0.5428,0.5428,0.5428,0.5428,0.5007,0.5036,0.5055,0.5096,0.512,0.5151,0.5169,0.5194,0.5218,0.5259,0.5285,0.5308,0.5341,0.5378,0.5408,0.5418,0.543,0.5425,0.5437,0.544,0.5441,0.5443,0.5437,0.5427,0.5427,0.5432,0.5432,0.5432]},{"header":{"parameterUnit":"m.s-1","parameterCategory":1,"la1":30.2991,"la2":30.254,"lo1":-89.0895,"lo2":-89.0444,"dy":0.0017,"dx":0.0017,"nx":28,"ny":28,"refTime":"2025-07-19T03:00:00:Z","depth":0,"parameterNumber":3,"parameterNumberName":"V-component_of_WINDS"},"data":[0,0,0,0,0,0,0,0,0,0,0,0,0,0,0,0,0,0,0,0,0,0,0,0,0,0,0,0,0,0,0,0,0,0,0,0,0,0,0,0,0,0,0,0,0,0,0,0,0,0,0,0,0,0,0,0,0,0,3.7234,3.7234,0,3.7197,3.7197,3.7197,3.7207,3.7208,3.7208,3.7209,3.7166,3.7164,3.7162,0,0,0,0,0,0,0,0,0,0,0,0,0,3.7308,3.7306,3.7234,3.7234,3.7233,3.7197,3.7197,3.7196,3.7207,3.7208,3.7209,3.7209,3.7166,3.7164,3.7162,0,0,0,0,0,0,0,0,0,0,0,0,0,3.7274,3.7306,3.7234,3.7234,3.7234,3.7198,3.7197,3.7196,3.7207,3.7208,3.7209,3.721,3.7167,3.7164,3.7161,3.7121,0,0,3.7153,3.7152,0,0,0,0,0,0,0,0,3.7276,3.7271,3.7235,3.7234,3.7234,3.7208,3.7207,3.7171,3.7206,3.7217,3.7209,3.721,3.7178,3.7175,3.7165,3.7119,3.7117,3.7153,3.7151,3.715,3.7149,0,0,0,0,0,0,0,3.7278,3.7273,3.7219,3.7234,3.7233,3.7234,3.7231,3.72,3.7191,3.7216,3.7217,3.7212,3.7178,3.7168,3.7164,3.7117,3.7153,3.715,3.7148,3.7147,3.7035,3.7034,0,0,0,0,0,0,3.7281,3.7274,3.7221,3.7218,3.7258,3.7232,3.7228,3.7215,3.7192,3.7189,3.7211,3.7213,3.7172,3.7167,3.7163,3.7113,3.715,3.7147,3.7145,3.7036,3.7035,3.7033,0,0,0,0,0,0,3.7283,3.7277,3.7222,3.7247,3.724,3.723,3.7215,3.7214,3.7203,3.7189,3.7186,3.7203,3.7173,3.7167,3.7132,3.7112,3.7146,3.7143,3.7038,3.7036,3.7034,3.7015,0,0,0,0,0,0,3.7285,3.7277,3.7263,3.7246,3.7238,3.7193,3.7214,3.7212,3.7199,3.7201,3.718,3.7177,3.7173,3.7136,3.7129,3.7109,3.7141,3.7039,3.7037,3.7034,3.7017,3.7013,3.7009,0,0,0,0,0,3.7288,3.7258,3.7262,3.7256,3.7221,3.7192,3.7187,3.7185,3.7197,3.7182,3.7173,3.7178,3.7116,3.7132,3.7124,3.7103,3.704,3.7037,3.7035,3.7019,3.7013,3.7009,0,0,0,0,0,0,3.727,3.7256,3.726,3.7224,3.721,3.7194,3.7175,3.7179,3.7159,3.7161,3.7157,3.7152,3.7116,3.7106,3.7125,3.7063,3.708,3.7075,3.707,3.7065,3.7061,3.7063,3.7139,0,0,0,0,0,3.7263,3.7242,3.723,3.7199,3.7192,3.7185,3.7172,3.7172,3.7155,3.7149,3.7137,3.7119,3.7095,3.708,3.7057,3.7016,3.7011,3.6998,3.6993,3.699,3.6986,3.6962,3.6956,3.7024,3.7024,3.7024,0,0,3.7245,3.7235,3.7222,3.7196,3.7184,3.7162,3.7179,3.7154,3.7137,3.7144,3.7111,3.7101,3.7081,3.7043,3.7026,3.7034,3.6966,3.6986,3.6984,3.6981,3.6959,3.6952,3.6947,3.7022,3.7022,3.7022,0,0,3.7203,3.7194,3.7168,3.7156,3.7139,3.7135,3.7129,3.7112,3.7107,3.7074,3.7079,3.7057,3.7017,3.7002,3.699,3.6943,3.6946,3.6935,3.6912,3.689,3.6884,3.688,3.6862,3.6856,3.6931,3.6931,3.6931,0,3.7184,3.7152,3.7153,3.7128,3.7116,3.7123,3.7096,3.7084,3.7059,3.705,3.706,3.701,3.6997,3.6955,3.6944,3.6934,3.6925,3.6937,3.6886,3.6881,3.6876,3.6859,3.6853,3.693,3.693,3.693,3.693,0,3.7128,3.7106,3.7086,3.7065,3.7051,3.7024,3.702,3.7004,3.7006,3.6999,3.6965,3.695,3.6925,3.6915,3.6915,3.6873,3.6878,3.6887,3.6904,3.6869,3.6852,3.6846,3.6928,3.6929,3.6929,3.6929,0,0,3.7073,3.7054,3.7046,3.7037,3.7019,3.7001,3.6974,3.6952,3.6938,3.6921,3.6898,3.6864,3.6872,3.6858,3.6856,3.6837,3.6799,3.6847,3.6847,3.6838,3.6751,3.6744,3.6737,3.6802,3.6801,3.68,3.6752,0,3.7028,3.6984,3.6984,3.6943,3.6921,3.6929,3.6906,3.6891,3.6885,3.6864,3.6857,3.6833,3.6846,3.6837,3.6818,3.6808,3.6782,3.6812,3.6779,3.6777,3.6783,3.6728,3.6721,3.6676,3.6746,3.6745,3.6744,0,3.697,3.6954,3.6911,3.6897,3.6888,3.6867,3.6846,3.6827,3.681,3.6807,3.6792,3.6793,3.6765,3.6783,3.6743,3.6763,3.675,3.6743,3.6741,3.6737,3.6758,3.6722,3.6662,3.6655,3.6735,3.6735,3.6736,0,3.6933,3.69,3.687,3.6862,3.6844,3.683,3.6821,3.6806,3.6793,3.6774,3.6764,3.6742,3.6729,3.671,3.6705,3.6719,3.6664,3.6683,3.6659,3.6659,3.6646,3.6647,3.6583,3.6639,3.6639,3.6639,3.6639,0,3.6883,3.6856,3.6853,3.6834,3.6804,3.6804,3.6773,3.6766,3.6752,3.6731,3.6735,3.6715,3.671,3.6688,3.6683,3.665,3.6644,3.6639,3.6638,3.6638,3.6639,3.6628,3.6631,3.6638,3.6638,3.6638,3.6639,0,3.6836,3.6833,3.68,3.6788,3.6784,3.6762,3.675,3.6731,3.6726,3.6699,3.6692,3.6683,3.6657,3.6651,3.6619,3.6616,3.6577,3.6579,3.6583,3.6583,3.6559,3.6561,3.6485,3.6475,3.6539,3.6538,3.6538,0,3.6803,3.6783,3.6769,3.6756,3.6748,3.6726,3.6713,3.6712,3.6697,3.6677,3.6661,3.6636,3.6616,3.6575,3.6564,3.654,3.6541,3.6516,3.6537,3.6538,3.6539,3.654,3.6538,3.6511,3.6511,3.651,3.651,0,3.6746,3.6746,3.6728,3.6709,3.6693,3.6678,3.6663,3.6651,3.6648,3.6631,3.6606,3.6591,3.656,3.6535,3.6511,3.65,3.6504,3.6504,3.6497,3.6496,3.6499,3.6496,3.6571,3.6505,3.6505,3.6506,3.6506,3.6506,3.6705,3.6687,3.6674,3.6653,3.6643,3.6629,3.6611,3.6604,3.6584,3.656,3.656,3.6533,3.6516,3.6484,3.6473,3.645,3.6457,3.6447,3.6444,3.6442,3.6439,3.6504,3.6445,3.6445,3.6445,3.6446,3.6446,0,3.6647,3.6639,3.662,3.6601,3.6584,3.6591,3.6575,3.656,3.6537,3.6522,3.6503,3.6474,3.645,3.6438,3.6413,3.6397,3.6398,3.6391,3.6391,3.6388,3.6435,3.6443,3.639,3.639,3.639,3.639,3.639,3.639,3.6615,3.6585,3.6584,3.6548,3.654,3.6515,3.6505,3.6492,3.648,3.6448,3.6429,3.6422,3.6408,3.6383,3.636,3.6357,3.6348,3.6339,3.6337,3.638,3.6385,3.6391,3.6398,3.6337,3.6337,3.6292,3.6292,3.6292]}]]